TimeCDT,TemperatureF,Dew PointF,Humidity,Sea Level PressureIn,VisibilityMPH,Wind Direction,Wind SpeedMPH,Gust SpeedMPH,PrecipitationIn,Events,Conditions,WindDirDegrees,DateUTC
12:53 AM,42.1,30.0,62,30.33,10.0,NE,8.1,-,N/A,,Clear,40,2012-10-05 05:53:00
1:53 AM,42.1,30.0,62,30.31,10.0,NE,10.4,-,N/A,,Clear,50,2012-10-05 06:53:00
3:53 AM,36.0,28.9,76,30.33,10.0,NNE,6.9,-,N/A,,Clear,30,2012-10-05 08:53:00
4:53 AM,39.9,30.0,68,30.31,10.0,ENE,5.8,-,N/A,,Partly Cloudy,60,2012-10-05 09:53:00
5:53 AM,39.9,30.0,68,30.30,10.0,ENE,6.9,-,N/A,,Mostly Cloudy,70,2012-10-05 10:53:00
6:53 AM,39.9,30.9,70,30.32,10.0,NE,5.8,-,N/A,,Overcast,40,2012-10-05 11:53:00
7:53 AM,39.9,30.9,70,30.32,10.0,ENE,5.8,-,N/A,,Scattered Clouds,60,2012-10-05 12:53:00
8:53 AM,39.9,30.9,70,30.35,10.0,ENE,8.1,-,0.00,Rain,Light Rain,70,2012-10-05 13:53:00
9:53 AM,39.0,32.0,76,30.42,8.0,NE,11.5,-,0.00,Rain,Light Rain,50,2012-10-05 14:53:00
10:41 AM,33.8,33.8,100,30.37,1.8,East,8.1,-,0.07,Snow,Light Snow,100,2012-10-05 15:41:00
10:51 AM,33.8,33.8,100,30.36,1.0,East,6.9,-,N/A,Snow,Light Snow,100,2012-10-05 15:51:00
10:53 AM,33.1,33.1,100,30.40,1.0,East,5.8,-,0.09,Snow,Light Snow,100,2012-10-05 15:53:00
11:18 AM,33.8,33.8,100,30.40,0.8,Calm,Calm,-,0.03,Snow,Light Snow,0,2012-10-05 16:18:00
11:20 AM,33.8,33.8,100,30.40,0.8,Calm,Calm,-,0.03,Snow,Light Snow,0,2012-10-05 16:20:00
11:33 AM,33.8,32.0,93,30.39,0.8,ENE,3.5,-,0.04,Snow,Light Snow,70,2012-10-05 16:33:00
11:49 AM,33.8,33.8,100,30.38,1.5,East,3.5,-,0.05,Snow,Light Snow,100,2012-10-05 16:49:00
11:53 AM,34.0,34.0,100,30.43,2.0,East,3.5,-,0.05,Snow,Light Snow,100,2012-10-05 16:53:00
12:07 PM,33.8,33.8,100,30.38,3.0,East,4.6,-,0.00,Snow,Light Snow,100,2012-10-05 17:07:00
12:53 PM,37.9,36.0,93,30.41,10.0,East,6.9,-,0.00,,Overcast,90,2012-10-05 17:53:00
1:24 PM,39.2,37.4,93,30.37,10.0,ESE,5.8,-,N/A,,Overcast,120,2012-10-05 18:24:00
1:53 PM,41.0,37.9,89,30.39,10.0,ESE,4.6,-,N/A,,Overcast,110,2012-10-05 18:53:00
2:53 PM,42.1,35.1,76,30.37,10.0,ENE,8.1,-,N/A,,Overcast,70,2012-10-05 19:53:00
3:12 PM,42.8,33.8,70,30.33,10.0,NE,6.9,-,N/A,,Overcast,40,2012-10-05 20:12:00
3:53 PM,44.1,34.0,68,30.36,10.0,NE,9.2,-,N/A,,Overcast,50,2012-10-05 20:53:00
4:53 PM,45.0,34.0,65,30.34,10.0,NE,9.2,-,N/A,,Overcast,40,2012-10-05 21:53:00
5:53 PM,44.1,35.1,71,30.36,10.0,NNE,10.4,-,N/A,,Overcast,30,2012-10-05 22:53:00
6:53 PM,43.0,34.0,71,30.36,10.0,North,6.9,-,N/A,,Scattered Clouds,10,2012-10-05 23:53:00
7:53 PM,37.9,33.1,83,30.38,10.0,North,4.6,-,N/A,,Clear,350,2012-10-06 00:53:00
8:53 PM,39.0,34.0,82,30.40,10.0,West,3.5,-,N/A,,Partly Cloudy,260,2012-10-06 01:53:00
9:53 PM,37.0,34.0,89,30.41,10.0,WNW,3.5,-,N/A,,Clear,290,2012-10-06 02:53:00
10:53 PM,37.9,35.1,89,30.41,10.0,West,3.5,-,N/A,,Clear,260,2012-10-06 03:53:00
11:53 PM,39.0,35.1,86,30.42,10.0,West,5.8,-,N/A,,Clear,280,2012-10-06 04:53:00